EHI
0 0 0 0 0 0 0 0 0 0 0 0 0 0 1 1 1 0 0 0 1 2 2 3 2 2 4 8 12 12 11 11 11 11 10 8 5 3 3 4 5 6 4 3
0 0 0 0 0 0 0 0 0 0 0 0 0 0 0 0 0 0 0 0 2 3 4 3 3 4 6 10 13 13 12 12 12 11 11 10 7 5 4 5 7 7 6 5
0 0 0 0 0 0 0 0 0 0 0 0 0 0 0 0 0 0 0 0 1 3 4 5 5 7 9 10 12 13 14 14 14 13 12 11 11 9 7 8 9 8 7 6
0 0 0 0 0 0 0 0 0 0 0 0 0 1 1 1 0 0 1 1 2 3 5 7 8 9 9 8 9 13 16 18 18 16 14 14 14 13 11 11 10 8 6 5
0 0 0 0 0 0 0 0 0 0 0 0 1 1 1 2 1 1 2 3 3 4 7 8 8 8 8 6 7 11 17 20 21 20 18 17 16 15 13 13 11 8 5 4
0 0 1 1 0 0 0 0 0 0 0 0 1 0 1 3 2 1 2 4 5 6 7 7 8 8 7 5 6 9 14 19 21 20 18 17 16 15 16 15 12 8 5 4
0 0 1 1 0 0 0 0 0 0 0 0 1 1 1 3 3 1 2 4 5 7 8 8 9 9 6 5 5 6 10 15 18 18 16 15 15 16 17 17 14 10 7 5
0 0 1 1 0 0 0 0 0 0 0 0 1 1 3 3 3 2 2 4 6 9 11 11 10 9 6 4 4 5 8 13 16 16 16 16 16 15 17 18 15 11 8 7
0 0 0 0 0 0 1 0 0 0 0 0 0 2 3 4 5 4 3 5 8 12 14 13 11 8 7 6 6 6 8 11 14 15 16 16 17 17 19 20 18 14 11 9
0 0 0 0 0 0 0 0 0 0 0 0 0 1 2 4 6 5 6 8 11 14 15 14 11 8 7 8 9 8 8 10 12 14 15 16 18 20 21 22 23 21 18 15
0 0 0 0 0 0 0 0 0 0 0 0 0 0 1 3 4 6 8 10 12 14 14 12 10 8 9 9 10 11 11 11 14 17 17 18 20 21 21 23 25 25 23 21
0 0 0 0 0 0 0 0 0 0 0 0 0 0 1 2 3 5 8 10 11 11 12 11 10 10 11 11 12 14 14 14 17 21 23 22 21 20 19 21 22 23 23 23
0 0 0 0 0 0 0 0 0 0 0 0 0 0 0 0 1 5 7 9 10 12 13 14 13 14 15 15 16 16 16 18 21 24 26 26 23 20 19 18 19 20 20 20
0 0 0 0 0 0 0 0 0 0 0 0 0 0 0 1 2 5 7 9 11 15 17 16 15 17 17 17 17 17 16 18 20 23 24 24 22 20 18 18 17 17 16 15
0 0 0 0 0 0 0 0 0 0 0 0 0 0 1 2 3 6 8 9 12 15 16 14 13 16 18 18 18 17 17 17 17 18 19 19 19 18 17 16 14 12 11 11
0 0 0 0 0 0 0 0 0 0 0 0 0 0 1 3 5 7 10 10 11 13 13 11 12 15 18 19 19 19 19 18 17 17 18 18 18 17 16 14 12 10 9 8
0 0 0 0 0 0 0 0 0 0 0 0 0 1 3 4 5 9 11 11 10 11 11 12 15 17 18 18 19 19 19 19 20 19 17 16 15 15 14 14 12 11 9 8
0 0 0 0 0 0 0 0 0 0 0 0 1 2 4 5 6 8 10 10 9 9 11 14 18 19 17 17 16 16 17 18 19 17 13 11 9 9 11 12 10 10 9 8
0 0 0 0 0 0 0 0 0 0 0 1 1 3 5 6 7 8 10 9 8 8 11 14 17 17 18 16 13 13 14 14 14 12 8 6 4 6 9 10 9 9 8 7
0 0 0 0 0 0 0 0 0 0 0 0 1 4 7 8 9 13 14 12 9 8 10 12 14 16 18 16 12 11 11 10 9 7 4 3 3 4 7 9 10 10 8 6
0 0 0 0 0 0 0 0 0 0 1 1 3 6 9 10 13 18 20 18 13 11 10 10 12 16 17 15 13 11 9 6 4 2 2 2 2 2 4 6 7 8 7 5
0 0 0 0 0 0 0 0 2 2 3 4 6 8 10 13 16 20 23 21 18 15 12 11 12 13 14 13 12 11 8 5 2 0 0 1 1 2 3 3 4 5 4 2
0 0 0 0 1 1 1 2 4 5 5 7 9 10 12 16 18 20 22 20 18 17 14 11 9 8 8 8 8 9 8 6 3 1 1 2 3 3 3 3 3 4 3 1
0 0 0 1 2 2 2 3 5 6 6 8 9 12 16 18 19 19 18 16 15 14 11 8 5 3 4 5 5 6 6 6 4 3 3 4 4 4 4 4 4 4 3 2
1 1 1 2 3 3 4 4 5 7 7 8 11 15 17 18 18 18 16 13 11 10 8 6 2 2 4 4 4 5 4 4 4 3 3 3 3 3 5 5 5 5 4 3
2 2 2 3 3 4 4 4 5 7 8 9 13 17 17 16 18 19 17 12 10 8 7 5 3 2 3 4 4 4 4 3 3 3 3 3 3 3 5 6 6 5 4 2
Wind_Speed
7 8 7 5 5 6 5 4 2 2 1 3 3 2 4 5 5 5 5 6 5 5 5 5 4 4 3 3 2 1 1 2 1 1 1 1 1 2 2 2 3 2 2 2
8 9 6 4 5 6 6 5 2 1 1 3 2 2 3 5 6 5 5 5 6 6 6 5 5 4 4 3 3 2 2 2 1 1 1 1 1 1 1 2 3 2 2 2
10 3 3 6 6 7 6 5 3 2 2 4 4 4 6 6 6 6 5 5 6 6 6 6 5 4 4 3 3 2 2 2 1 1 1 1 1 1 1 1 1 1 1 1
8 5 6 7 7 8 6 3 4 4 6 2 5 3 5 6 7 6 6 6 6 7 7 7 6 5 4 4 3 3 2 2 2 2 2 1 1 0 1 0 1 1 1 1
7 7 8 9 6 6 3 2 4 6 7 6 5 6 3 5 5 6 6 6 6 7 7 7 6 5 4 4 3 3 3 2 2 2 2 2 2 1 1 1 1 0 1 0
7 5 6 6 4 5 4 5 5 7 8 6 2 6 1 3 3 4 6 6 6 6 7 7 6 5 5 4 4 3 3 3 3 3 3 2 2 1 1 1 0 1 1 1
9 9 7 6 7 8 9 8 6 7 6 3 1 5 1 2 1 2 4 5 6 6 7 7 7 6 5 4 4 4 4 3 3 3 3 3 3 3 2 2 1 1 1 0
10 9 9 8 9 8 9 10 8 7 5 2 4 3 3 3 2 2 3 4 5 6 6 6 6 5 5 5 4 4 4 3 3 3 2 2 3 3 2 2 2 1 1 1
7 6 6 6 6 9 9 9 8 9 7 7 3 2 3 3 3 4 5 5 5 5 5 5 5 4 4 5 5 4 4 3 3 2 2 2 2 2 1 1 2 2 1 1
6 6 6 5 6 5 8 7 7 8 7 7 5 4 1 4 4 5 5 5 5 6 6 6 5 4 4 4 4 4 4 3 2 2 2 2 2 1 1 2 1 1 1 1
9 8 7 8 8 7 7 8 7 6 7 8 5 1 4 3 4 5 6 5 6 5 6 6 5 5 4 4 4 4 3 3 2 2 2 2 1 1 1 1 1 1 1 1
8 8 7 7 4 4 7 7 8 7 6 7 8 0 6 3 4 4 5 5 5 4 5 5 5 4 3 3 3 3 2 2 2 2 2 2 1 1 1 1 0 1 1 1
5 7 8 9 9 7 7 8 9 9 7 7 8 1 6 5 4 4 5 5 5 5 5 5 4 4 3 3 3 3 2 2 1 2 2 1 1 1 1 1 1 1 1 1
6 8 8 7 3 5 7 8 9 10 8 7 7 4 5 5 5 5 5 6 6 6 6 5 4 4 4 3 3 2 2 1 2 1 1 1 0 1 1 1 1 0 0 0
6 8 7 7 5 5 6 8 8 10 9 8 6 5 2 5 5 5 5 6 6 6 6 5 4 4 4 4 3 2 2 2 1 1 1 1 1 1 1 1 1 1 0 0
5 6 7 8 7 7 8 8 9 9 9 8 6 4 2 4 5 5 6 5 5 5 5 5 5 4 4 4 3 3 3 2 2 1 2 2 2 1 1 2 1 0 0 1
6 6 7 8 8 9 10 9 9 9 8 7 7 3 5 6 6 6 6 5 5 4 4 4 4 4 4 3 3 3 3 2 2 2 3 2 2 2 2 2 2 1 1 1
5 6 6 6 7 11 4 2 6 7 7 7 5 3 5 5 6 5 5 5 4 4 3 4 4 4 4 4 4 3 3 3 3 2 3 3 2 2 2 2 2 2 1 1
7 7 6 7 9 9 5 4 5 6 6 4 4 3 5 6 6 6 5 5 4 4 4 4 4 4 5 4 4 3 3 3 3 3 3 2 1 1 1 1 1 2 1 1
7 8 9 8 10 10 3 4 4 7 7 4 4 5 7 8 7 5 8 7 6 5 5 4 4 5 5 4 4 3 4 4 3 3 2 2 1 1 1 1 1 1 1 2
9 9 10 10 10 7 2 3 6 8 2 3 4 5 8 7 0 7 9 8 6 6 5 5 4 4 4 4 3 3 3 3 2 2 1 1 1 1 0 1 1 1 2 2
8 8 9 9 11 6 3 4 4 2 3 1 3 3 4 5 7 9 9 8 7 6 5 5 4 4 4 3 3 3 3 2 2 1 1 1 1 1 1 1 1 1 2 2
6 4 4 4 2 3 1 1 2 2 1 1 2 3 5 7 8 8 8 8 7 6 5 4 4 4 4 3 2 2 2 2 1 1 1 1 1 2 2 1 1 1 2 2
4 2 4 4 2 1 0 0 1 1 1 1 2 4 7 8 8 8 8 7 6 6 5 4 4 4 4 3 3 2 2 1 1 1 1 1 1 1 1 2 1 2 2 2
2 3 5 5 3 2 1 1 1 1 1 2 4 5 7 8 8 8 7 7 6 5 4 4 3 4 4 3 3 2 2 1 1 1 1 1 1 1 1 1 2 2 3 3
5 6 6 4 1 3 1 1 1 1 2 3 5 6 6 7 8 7 7 6 6 5 4 4 3 3 3 3 2 2 2 1 1 1 1 1 1 1 1 1 1 3 2 1
Wind_Direction
206 230 236 244 257 295 291 286 303 37 75 254 250 223 166 175 185 189 189 180 174 171 162 160 160 156 149 144 140 131 105 103 118 105 104 97 99 89 76 69 62 56 48 54
213 226 244 262 245 247 252 261 253 135 166 269 265 245 180 184 193 191 188 182 174 168 158 161 165 164 160 158 162 165 166 145 170 116 105 74 54 80 82 67 73 63 57 35
237 239 226 234 229 235 243 264 290 285 215 222 254 205 182 186 192 191 195 191 182 181 170 166 171 172 172 170 174 167 169 169 186 192 182 146 154 162 123 103 100 71 54 52
240 227 234 236 232 244 239 257 268 250 250 226 259 275 168 185 192 195 199 196 188 184 179 172 174 176 181 179 170 170 177 177 184 196 200 200 195 139 76 118 92 90 78 59
219 222 234 238 240 250 269 244 242 250 262 263 230 273 133 169 202 197 196 199 194 187 184 178 177 174 179 174 172 168 171 179 188 198 192 213 217 198 174 160 125 194 127 110
239 225 246 246 228 229 198 204 214 232 249 255 260 272 225 157 218 199 193 195 195 188 184 181 178 176 180 177 177 170 164 179 192 198 199 215 227 238 252 245 202 216 169 175
214 211 211 225 213 199 221 235 232 227 228 242 149 262 1 76 148 194 190 188 185 184 182 181 181 183 184 180 182 181 173 186 195 197 207 213 226 226 227 243 224 265 267 237
218 207 200 212 231 231 226 247 261 271 272 247 191 253 62 85 95 153 168 167 166 173 171 169 171 177 182 180 184 184 175 186 192 194 200 214 225 235 231 227 268 259 281 322
234 214 174 205 231 243 229 238 266 270 271 270 235 201 155 132 139 150 153 148 146 153 154 156 159 164 181 181 181 183 179 180 189 188 187 191 212 248 271 242 244 258 276 274
250 235 188 179 202 217 259 248 235 250 264 263 247 242 209 152 172 166 161 154 147 147 147 151 153 161 178 178 171 175 184 180 185 183 202 179 188 204 232 251 275 296 287 290
238 233 198 195 216 215 205 220 243 255 269 274 270 294 79 152 174 175 168 156 148 149 147 147 150 160 170 171 166 171 181 179 176 180 189 209 207 191 205 229 250 245 246 229
231 243 227 211 197 270 244 242 236 243 246 264 276 63 98 139 164 172 160 148 145 147 145 143 143 148 154 155 153 162 174 178 181 181 194 198 201 229 225 206 258 256 230 223
211 242 224 204 191 195 226 231 241 252 251 253 261 195 119 140 149 149 150 147 143 143 136 131 124 125 130 129 131 139 158 176 170 166 178 176 200 245 273 301 306 285 246 220
242 237 250 247 232 194 215 223 227 241 247 250 258 261 152 163 167 154 147 145 144 142 138 131 128 124 116 109 112 124 129 120 108 108 121 109 69 339 338 2 334 317 273 238
240 234 237 257 258 238 233 232 227 238 257 267 264 263 214 174 177 154 144 148 147 145 141 137 135 125 121 112 105 98 91 80 82 100 83 64 46 41 28 28 27 33 352 287
240 243 234 234 235 234 242 240 234 240 250 254 261 253 127 160 155 149 153 156 154 148 144 139 134 127 119 113 107 100 91 89 89 86 75 61 46 44 33 14 24 6 301 299
214 228 240 233 225 235 236 236 236 236 238 247 250 226 149 168 165 165 162 164 159 143 143 140 134 127 121 114 105 101 91 89 88 79 63 51 30 22 17 2 2 342 299 278
231 238 245 242 225 239 238 224 241 242 242 249 255 207 176 168 159 156 159 160 152 139 140 135 130 126 117 107 103 97 92 85 78 69 63 47 26 16 10 356 344 323 303 282
230 231 244 244 239 240 208 197 221 235 233 236 229 192 169 148 152 157 154 150 142 138 131 125 128 122 115 112 109 107 96 80 67 50 43 36 26 26 6 346 324 315 311 295
200 227 241 237 249 245 226 169 208 234 225 191 199 181 172 178 206 158 149 144 139 134 128 126 124 119 116 113 115 116 97 80 61 46 37 34 32 39 8 328 304 311 296 283
199 211 230 239 247 247 105 151 194 226 226 149 196 190 188 198 243 112 134 137 133 126 122 120 115 107 106 111 114 106 89 75 60 57 31 24 32 17 356 340 311 298 294 307
226 222 220 233 243 236 91 177 219 336 19 165 186 184 176 143 120 129 136 135 132 127 122 119 114 106 105 111 118 108 89 71 56 50 33 20 5 332 40 20 334 317 299 276
240 274 265 251 263 46 136 271 318 318 278 220 197 169 157 145 140 140 138 135 132 127 121 120 117 113 107 108 110 102 87 83 71 41 31 12 358 347 357 352 347 311 299 302
191 252 255 247 241 304 243 316 357 346 342 151 157 155 154 146 142 140 137 133 130 125 122 120 117 111 100 90 82 85 95 94 81 37 14 352 345 356 12 337 340 335 329 320
246 217 233 237 244 230 196 10 22 49 73 110 128 139 144 143 143 142 139 135 132 128 125 124 118 109 100 92 88 88 88 75 23 2 356 337 353 6 344 340 352 328 352 346
232 238 248 256 271 270 237 30 16 81 89 115 127 132 136 142 142 139 137 136 135 131 127 124 115 110 108 102 91 80 78 64 340 322 319 321 328 352 320 326 348 26 350 27